Погода в Набеле

Тунис     36°28′05″N   10°42′49″E
темп.,
°C
ветер,
м/с
пор.,
м/с
влажн.,
%
обл.,
%
осадки,
мм/ч
давл.,
гПа
погр.,
м
15 мая, сб
сб1501:00+16сз131973100 0.0 1015776
04:00+15сз11177025 0.0 1015612
07:00+17сз11156133 0.0 1017914
10:00+21сз910388 0.0 10181010
13:00+23ссз77275 0.0 10181234
16:00+23ссв3431100 0.0 10171005
19:00+19св565065 0.0 1017113
22:00+17ю347318 0.0 101976
16 мая, вс
вс1601:00+16ююз457270 0.0 101777
04:00+17ююз56735 0.0 101587
07:00+19ююз695849 0.0 1015321
10:00+23ююз67490 0.0 1015387
13:00+27ююв55382 0.0 1014643
16:00+24вюв44510 0.0 1012212
19:00+20вюв22690 0.0 101335
22:00+18юз00710 0.0 101411
17 мая, пн
пн1701:00+18ю22700 0.0 101311
04:00+17ююв12740 0.0 101211
07:00+21всв11650 0.0 101373
10:00+28всв23360 0.0 1013588
13:00+27в44422 0.0 1014520
16:00+26всв77460 0.0 1013415
19:00+21ююз116515 0.0 101513
22:00+20ссз33540 0.1 101521
18 мая, вт
вт1801:00+19сз6117591 0.1 1015183
04:00+19сз9146797 0.0 1016293
07:00+20ссз9125872 0.0 1017381
10:00+24ссз111343100 0.0 1018575
13:00+24ссз111235100 0.0 1019737
16:00+23ссз11123939 0.0 1019685
19:00+19ссз10155780 0.0 1020501
22:00+18сз121861100 0.0 1021491
19 мая, ср
ср1901:00+17сз1017617 0.0 1021536
04:00+16сз11166846 0.0 1021544
07:00+17сз1113585 0.0 1023651
10:00+22ссз10113788 0.0 1023953
13:00+24ссз1011295 0.0 1022951
16:00+23ссз1011295 0.0 1021843
19:00+19ссз812450 0.0 1022366
22:00+16ссз813570 0.0 1023339